Location: Great Chart
(51.1333°N, 0.8333°E)
Time: 11:04:44
(UTC+00:00)

IDEFIX/ARIANE 42P - Pass Details

Date: 19 September 2020
Orbit: 785 x 802 km, 98.4° (Epoch: 31 October)

Event Time Altitude Azimuth Distance (km) Brightness Sun altitude
Rises 03:23:59 0° 14° (NNE) 3,326 6.5 -20.9°
Reaches altitude 10° 03:26:20 10° 13° (NNE) 2,392 5.6 -20.5°
Maximum altitude 03:31:38 82° 288° (WNW) 817 2.5 -19.8°
Enters shadow 03:34:28 28° 202° (SSW) 1,455 3.5 -19.4°
